This is the latest recevied weather packets stored in our database for station/object AJ5AG. If no packets are shown the sender has not sent any weather packets the latest 10 day(s).
| Time | Temp. | Humidity | Pressure | Rain* | Wind** | Luminosity | Snow |
|---|---|---|---|---|---|---|---|
| 1777837651 | 26.11° C | 38% | 1023.1 hPa | 0 mm | - | 814 W/m² | - |
| 1777837346 | 26.11° C | 38% | 1023.1 hPa | 0 mm | - | 840 W/m² | - |
| 1777837043 | 26.11° C | 37% | 1023 hPa | 0 mm | - | 863 W/m² | - |
| 1777836739 | 26.67° C | 38% | 1023.1 hPa | 0 mm | - | 154 W/m² | - |
| 1777836435 | 27.22° C | 38% | 1023.3 hPa | 0 mm | - | 153 W/m² | - |
| 1777836130 | 27.22° C | 37% | 1023.3 hPa | 0 mm | - | 853 W/m² | - |
| 1777835827 | 27.22° C | 36% | 1023.2 hPa | 0 mm | - | 707 W/m² | - |
| 1777835524 | 27.22° C | 39% | 1023.5 hPa | 0 mm | - | 873 W/m² | - |
| 1777835221 | 27.78° C | 39% | 1023.5 hPa | 0 mm | - | 858 W/m² | - |
| 1777834918 | 27.78° C | 37% | 1023.7 hPa | 0 mm | - | 843 W/m² | - |
| 1777834615 | 27.78° C | 36% | 1023.6 hPa | 0 mm | - | 853 W/m² | - |
| 1777834310 | 27.22° C | 36% | 1023.6 hPa | 0 mm | - | 853 W/m² | - |
| 1777834005 | 26.67° C | 37% | 1023.5 hPa | 0 mm | - | 829 W/m² | - |
| 1777833702 | 26.67° C | 36% | 1023.7 hPa | 0 mm | - | 840 W/m² | - |
| 1777833398 | 26.67° C | 37% | 1024 hPa | 0 mm | - | 834 W/m² | - |
| 1777833096 | 27.22° C | 36% | 1023.9 hPa | 0 mm | - | 845 W/m² | - |
| 1777832794 | 26.67° C | 35% | 1024.2 hPa | 0 mm | - | 838 W/m² | - |
| 1777832492 | 26.11° C | 38% | 1024.1 hPa | 0 mm | - | 838 W/m² | - |
| 1777832188 | 27.22° C | 35% | 1024.2 hPa | 0 mm | - | 836 W/m² | - |
| 1777831885 | 27.22° C | 38% | 1024.3 hPa | 0 mm | - | 832 W/m² | - |
| 1777831582 | 27.22° C | 36% | 1024.4 hPa | 0 mm | - | 830 W/m² | - |
| 1777831280 | 27.22° C | 37% | 1024.4 hPa | 0 mm | - | 835 W/m² | - |
| 1777830977 | 26.67° C | 38% | 1024.6 hPa | 0 mm | - | 844 W/m² | - |
| 1777830674 | 26.67° C | 40% | 1024.8 hPa | 0 mm | - | 727 W/m² | - |
| 1777830371 | 26.11° C | 42% | 1024.8 hPa | 0 mm | - | 848 W/m² | - |
* Rain latest hour (hover to see other rain measurements)
** Current wind speed in m/s (hover to see current wind gust speed)